Location: Wiesbaden
(50.0830°N, 8.2500°E)
Time: 23:34:40
(UTC+01:00)

ISS - Pass Details

Date: 12 November 2019
Orbit: 412 x 421 km, 51.6° (Epoch: 15 November)

Event Time Altitude Azimuth Distance (km) Brightness Sun altitude
Exits shadow 05:01:28 15° 155° (SSE) 1,255 -1.1 -24.5°
Drops below altitude 10° 05:02:10 10° 149° (SSE) 1,499 -0.6 -24.4°
Sets 05:04:23 0° 139° (SE) 2,358 0.6 -24.0°
